Terminal Aerodrome Forecast
Issued by NWS Austin/San Antonio, TX

Home | Current Version | Previous Version | Text Only | Print | Product List | Glossary On
Versions: 1 2 3 4 5 6 7 8 9 10 11 12 13 14 15 16 17 18 19 20
000
FTUS44 KEWX 212000 AAA
TAFDRT
TAF AMD
KDRT 212038Z 2121/2218 12010KT P6SM BKN050
     FM221000 11005KT P6SM BKN025 OVC120
     FM221400 11008KT P6SM FEW025 BKN040=

USA.gov is the U.S. government's official web portal to all federal, state and local government web resources and services.